Regional Weather Roundup
Issued by NWS Sioux Falls, SD

Home | Current Version | Previous Version | Graphics & Text | Print | Product List | Glossary Off
Versions: 1 2 3 4 5 6 7 8 9 10 11 12 13 14 15 16 17 18 19 20 21 22 23 24 25 26 27 28 29 30 31 32 33 34 35 36 37 38 39 40 41 42 43 44 45 46 47 48 49 50

740
ASUS43 KFSD 281602
RWRFSD

WEATHER ROUNDUP FOR SE SOUTH DAKOTA/SW MINNESOTA/NW IOWA
NATIONAL WEATHER SERVICE SIOUX FALLS SD
1100 AM CDT FRI APR 28 2017

NOTE: "FAIR" INDICATES FEW OR NO CLOUDS BELOW 12,000 FEET WITH NO
SIGNIFICANT WEATHER AND OR OBSTRUCTIONS TO VISIBILITY.


SDZ038>040-050-052>070-281700-
SOUTHEAST SOUTH DAKOTA

CITY           SKY/WX    TMP DP  RH WIND       PRES   REMARKS
BROOKINGS      CLOUDY    41  25  53 NE17      29.92S
CHAMBERLAIN    CLOUDY    46  28  49 NE16      29.95R
HURON          CLOUDY    46  24  42 NE14      29.95R
MADISON        FAIR      39  27  60 NE17G25   29.92R
MITCHELL       CLOUDY    45  27  49 NE15      29.96R
SIOUX FALLS    CLOUDY    42  30  62 NE15      29.94R
WINNER         FAIR      43  31  62 E17       29.92R
YANKTON        CLOUDY    37  30  75 NE8       29.92S
$$

MNZ071-072-080-081-089-090-097-098-281700-
SOUTHWEST MINNESOTA

CITY           SKY/WX    TMP DP  RH WIND       PRES   REMARKS
FAIRMONT       CLOUDY    40  32  73 N13       29.92S
JACKSON        MOSUNNY   39  32  75 VRB9      29.92S
LUVERNE        CLOUDY    39  28  65 NE9G16    29.94R
MARSHALL       CLOUDY    40  28  62 N16G22    29.95R
MONTEVIDEO     MOSUNNY   43  30  61 N12G21    29.96R
PIPESTONE      CLOUDY    39  25  56 NE15      29.91S
REDWOOD FALLS  CLOUDY    41  30  65 NW9       29.95R
TRACY          CLOUDY    41  32  70 N15G21    29.94R
WINDOM         CLOUDY    41  30  65 N9        29.93R
WORTHINGTON    MOSUNNY   38  30  73 NE13      29.94R
$$

IAZ001>003-012>014-020>022-031-032-NEZ013-014-SDZ071-281700-
NORTHWEST IOWA

CITY           SKY/WX    TMP DP  RH WIND       PRES   REMARKS
CHEROKEE       CLOUDY    39  32  76 E8        29.91R
DENISON        LGT RAIN  34  34 100 NE16G24   29.87F WCI  23
ESTHERVILLE    CLOUDY    39  32  76 N9        29.92S
LE MARS        CLOUDY    39  30  70 NE7G14    29.92S
ORANGE CITY    CLOUDY    39  34  81 NE8       29.91S
SHELDON        CLOUDY    39  32  75 NE14      29.91S
SIOUX CITY     LGT RAIN  38  31  76 E9        29.90S
SPENCER        PTSUNNY   41  30  65 NE12      29.93R
STORM LAKE     CLOUDY    37  30  75 E10       29.90S
$$

ABBREVIATIONS USED IN REMARKS
   TC - TEMPERATURE IN CELSIUS
  WCI - WIND CHILL INDEX
   HX - HEAT INDEX
  VSB - VISIBILITY





USA.gov is the U.S. government's official web portal to all federal, state and local government web resources and services.